Content
SEND FEEDBACK

Daily
Averages
Monthly
Summary
Malta

VALLETTA, MALTA


Home > Europe > Malta
Elevation: 299 feet     Latitude: 35 51N     Longitude: 014 29E

WEATHER
 
SELECT A DAY
Number of Records: 319,933;   Date Range: 7/1/96 - 12/26/14
 
SHARE

PRINT THIS DATA

[ ← Previous Day ]
WEATHER ALMANAC - AUGUST 7, 2014
[ Next Day → ]
[ °C ]   °F
Weather ElementAverageHighLow
Temperature79.2 °F87.8 °F (1:45 pm)73.4 °F (6:45 am)
Dewpoint66.6 °F71.6 °F (6:15 am)59 °F (1:15 pm)
Humidity65.9 %94 % (6:45 am)31 % (2:00 pm)
Barometer29.89 in29.93 in (11:00 pm)29.83 in (12:45 am)
Wind Speed9.1 mph15 mph (6:15 pm)
Weather ElementAverage
Visibility7.2 mi
Wind DirectionSSW (200.2 °)

Weather ElementTotal
Precipitation---
Cooling Degree Days15.6 (Base 65)
Growing Degree Days30.6 (Base 50)
Averaged from 56 records on August 7, 2014
WEATHER CONDITIONS BREAKOUT
WIND DIRECTION BREAKOUT
WEATHER BY HOUR - AUGUST 7, 2014
[ °C ]   °F
Local TimeTemperatureDewpointHumidityBarometerVisibilityWind DirectionWind SpeedGust SpeedPrecipitationEventsConditions
12:15 AM77.0 °F68.0 °F74 %29.86 inNorth (350°)11.5 mphClear
12:45 AM77.0 °F68.0 °F74 %29.83 inNorth (350°)12.7 mphClear
1:15 AM75.2 °F68.0 °F78 %29.83 in6.2 miNorth (360°)6.9 mphPartly Cloudy
1:45 AM75.2 °F69.8 °F83 %29.83 inNorth (350°)9.2 mphClear
2:00 AM76.0 °F70.0 °F75 %29.83 in12.0 miNorth9.2 mph
2:15 AM75.2 °F69.8 °F83 %29.83 inNNE (20°)9.2 mphClear
2:45 AM75.2 °F69.8 °F83 %29.83 inNE (40°)8.1 mphClear
3:15 AM75.2 °F69.8 °F83 %29.83 inNNE (30°)6.9 mphClear
3:45 AM75.2 °F69.8 °F83 %29.83 inNNE (20°)8.1 mphClear
4:15 AM75.2 °F69.8 °F83 %29.83 inNNE (20°)9.2 mphClear
4:45 AM75.2 °F69.8 °F83 %29.83 inNNE (20°)9.2 mphClear
5:00 AM75.0 °F70.0 °F81 %29.84 in9.0 miNorth (10°)6.9 mph
5:15 AM75.2 °F69.8 °F83 %29.86 inNorth (10°)6.9 mphClear
5:45 AM75.2 °F69.8 °F83 %29.86 in6.2 miNorth (10°)8.1 mphPartly Cloudy
6:15 AM75.2 °F71.6 °F89 %29.86 in6.2 miNorth (10°)8.1 mphPartly Cloudy
6:45 AM73.4 °F71.6 °F94 %29.86 in6.2 miNorth (10°)9.2 mphPartly Cloudy
7:15 AM75.2 °F69.8 °F83 %29.86 inNNE (20°)10.4 mphClear
7:45 AM77.0 °F69.8 °F78 %29.89 in6.2 miNorth (10°)10.4 mphPartly Cloudy
8:00 AM77.0 °F70.0 °F74 %29.88 in9.0 miNorth (10°)9.2 mph
8:15 AM77.0 °F69.8 °F78 %29.89 in6.2 miNorth (360°)10.4 mphScattered Clouds
8:45 AM78.8 °F68.0 °F69 %29.89 in6.2 miNorth (10°)8.1 mphPartly Cloudy
9:15 AM80.6 °F68.0 °F65 %29.89 inNorth (360°)8.1 mphClear
9:45 AM80.6 °F66.2 °F61 %29.89 in6.2 miNorth (350°)9.2 mphPartly Cloudy
10:15 AM82.4 °F64.4 °F54 %29.89 in6.2 miNorth (360°)6.9 mphPartly Cloudy
10:45 AM82.4 °F64.4 °F54 %29.89 in6.2 miNNE (20°)8.1 mphPartly Cloudy
11:00 AM83.0 °F65.0 °F45 %29.90 in12.0 miNE (40°)11.5 mphScattered Clouds
11:15 AM84.2 °F64.4 °F51 %29.92 in6.2 miNNE (30°)9.2 mphPartly Cloudy
11:45 AM84.2 °F64.4 °F51 %29.92 in6.2 miNE (40°)9.2 mphPartly Cloudy
12:15 PM86.0 °F64.4 °F48 %29.92 in6.2 miNNE (30°)9.2 mphPartly Cloudy
12:45 PM86.0 °F64.4 °F48 %29.92 in6.2 miNorth (10°)10.4 mphPartly Cloudy
1:15 PM86.0 °F59.0 °F40 %29.92 in6.2 miNW (320°)9.2 mphPartly Cloudy
1:45 PM87.8 °F60.8 °F40 %29.92 in6.2 miWest (280°)9.2 mphPartly Cloudy
2:00 PM87.0 °F60.0 °F31 %29.90 in12.0 miNW (310°)9.2 mph
2:15 PM87.8 °F60.8 °F40 %29.92 in6.2 miWNW (300°)10.4 mphPartly Cloudy
2:45 PM86.0 °F60.8 °F43 %29.92 in6.2 miWNW (300°)11.5 mphPartly Cloudy
3:15 PM86.0 °F60.8 °F43 %29.89 inWNW (300°)11.5 mphClear
3:45 PM86.0 °F60.8 °F43 %29.89 in6.2 miWNW (290°)10.4 mphPartly Cloudy
4:15 PM84.2 °F60.8 °F45 %29.89 in6.2 miNW (310°)12.7 mphPartly Cloudy
4:45 PM82.4 °F64.4 °F54 %29.92 in6.2 miNW (310°)12.7 mphPartly Cloudy
5:00 PM83.0 °F64.0 °F43 %29.90 in12.0 miNW (310°)12.7 mphScattered Clouds
5:15 PM82.4 °F64.4 °F54 %29.89 in6.2 miNNW (330°)13.8 mphPartly Cloudy
5:45 PM82.4 °F66.2 °F58 %29.89 in6.2 miNNW (330°)13.8 mphPartly Cloudy
6:15 PM80.6 °F68.0 °F65 %29.89 in6.2 miNNW (330°)15.0 mphPartly Cloudy
6:45 PM80.6 °F68.0 °F65 %29.89 in6.2 miNNW (330°)11.5 mphPartly Cloudy
7:15 PM78.8 °F68.0 °F69 %29.89 in6.2 miNW (320°)9.2 mphPartly Cloudy
7:45 PM78.8 °F68.0 °F69 %29.92 in6.2 miNW (320°)6.9 mphPartly Cloudy
8:00 PM78.0 °F68.0 °F65 %29.91 in9.0 miNW (320°)8.1 mph
8:15 PM77.0 °F68.0 °F74 %29.92 inNW (310°)5.8 mphClear
8:45 PM75.2 °F68.0 °F78 %29.92 inWNW (300°)8.1 mphClear
9:15 PM75.2 °F66.2 °F73 %29.92 inWNW (290°)5.8 mphClear
9:45 PM75.2 °F66.2 °F73 %29.92 inWNW (290°)5.8 mphClear
10:15 PM75.2 °F66.2 °F73 %29.92 inWNW (290°)5.8 mphClear
10:45 PM75.2 °F66.2 °F73 %29.92 inWNW (300°)5.8 mphClear
11:00 PM76.0 °F66.0 °F64 %29.93 in9.0 miWNW (290°)4.6 mph
11:15 PM75.2 °F66.2 °F73 %29.92 inWest (270°)4.6 mphClear
11:45 PM75.2 °F66.2 °F73 %29.92 inWNW (300°)4.6 mphClear
Hourly data recorded from LMML, located miles away from Valletta, Malta







STORIES FROM OUR PARTNERS